This is the latest recevied weather packets stored in our database for station/object AC5CM. If no packets are shown the sender has not sent any weather packets the latest 10 day(s).
| Time | Temp. | Humidity | Pressure | Rain* | Wind** | Luminosity | Snow |
|---|---|---|---|---|---|---|---|
| 1777609606 | 21.67° C | 95% | 1011.8 hPa | 0 mm | - | - | - |
| 1777609303 | 21.67° C | 95% | 1011.8 hPa | 0 mm | - | - | - |
| 1777609001 | 21.67° C | 95% | 1012 hPa | 0 mm | - | - | - |
| 1777608698 | 21.67° C | 95% | 1011.5 hPa | 0 mm | - | - | - |
| 1777608395 | 21.67° C | 95% | 1010.1 hPa | 0 mm | - | - | - |
| 1777608093 | 21.67° C | 95% | 1010.3 hPa | 0 mm | - | - | - |
| 1777607789 | 21.67° C | 95% | 1010.8 hPa | 0 mm | - | - | - |
| 1777607486 | 21.67° C | 95% | 1011.8 hPa | 0 mm | - | - | - |
| 1777607182 | 21.67° C | 94% | 1012.2 hPa | 0 mm | - | - | - |
| 1777606878 | 21.67° C | 94% | 1012.6 hPa | 0 mm | - | - | - |
| 1777606574 | 21.67° C | 94% | 1012.3 hPa | 0 mm | - | - | - |
| 1777606269 | 21.67° C | 94% | 1012.3 hPa | 0 mm | - | - | - |
| 1777605965 | 21.67° C | 94% | 1011.5 hPa | 1.27 mm | - | - | - |
| 1777605661 | 21.67° C | 94% | 1012 hPa | 3.05 mm | - | - | - |
| 1777605360 | 21.67° C | 93% | 1012.1 hPa | 3.05 mm | - | - | - |
| 1777605057 | 21.67° C | 93% | 1012 hPa | 3.05 mm | - | - | - |
| 1777604752 | 21.67° C | 93% | 1012.5 hPa | 3.05 mm | - | - | - |
| 1777604449 | 21.67° C | 93% | 1012.4 hPa | 1.27 mm | - | - | - |
| 1777604149 | 21.67° C | 92% | 1012.4 hPa | 1.78 mm | - | - | - |
| 1777603846 | 21.67° C | 92% | 1012.2 hPa | 3.05 mm | - | - | - |
| 1777603542 | 21.67° C | 92% | 1011.9 hPa | 1.27 mm | - | - | - |
| 1777603238 | 21.67° C | 91% | 1011.9 hPa | 0 mm | - | - | - |
| 1777602934 | 21.67° C | 91% | 1011.7 hPa | 0 mm | - | - | - |
| 1777602630 | 22.22° C | 91% | 1011.6 hPa | 1.78 mm | - | - | - |
| 1777602325 | 22.22° C | 90% | 1011.5 hPa | 0 mm | - | - | - |
* Rain latest hour (hover to see other rain measurements)
** Current wind speed in m/s (hover to see current wind gust speed)